Location: Maccacari
(45.1333°N, 11.1333°E)
Time: 22:29:03
(UTC+00:00)

HJ-1C - Pass Details

Date: 18 September 2020
Orbit: 432 x 443 km, 97.1° (Epoch: 25 October)

Event Time Altitude Azimuth Distance (km) Brightness Sun altitude
Rises 18:23:58 0° 173° (S) 2,394 6.9 -12.0°
Reaches altitude 10° 18:25:59 10° 177° (S) 1,532 5.9 -12.3°
Maximum altitude 18:29:14 64° 259° (W) 487 3.8 -12.9°
Drops below altitude 10° 18:32:31 10° 342° (NNW) 1,549 6.6 -13.4°
Sets 18:34:34 0° 345° (NNW) 2,424 7.6 -13.8°
